• In Portugal
  • List of Countries
  • For 7 days
  • Water Temperature
  • Satellite Maps
  • Weather Map
  • Weather Widgets
  • user-avatar
    Login

    Hourly Weather Niğde

    Today, 20 June, Wednesday

    Time Temperature Precipitation Wind Pressure Humidity
    00:00 +19°C° 0.3 mm 1 mps 650 mmHg 71%
    01:00 +18°C° 0.3 mm 1 mps 650 mmHg 73%
    02:00 +15°C° 0 mm 0 mps 650 mmHg 74%
    03:00 +15°C° 0 mm 0 mps 650 mmHg 73%
    04:00 +15°C° 0 mm 0 mps 650 mmHg 73%
    05:00 +15°C° 0 mm 0 mps 650 mmHg 73%
    06:00 +19°C° 0 mm 1 mps 651 mmHg 66%
    07:00 +20°C° 0 mm 1 mps 651 mmHg 59%
    08:00 +21°C° 0 mm 1 mps 652 mmHg 54%
    09:00 +22°C° 0.1 mm 1 mps 652 mmHg 51%
    10:00 +23°C° 0.1 mm 1 mps 652 mmHg 47%
    11:00 +24°C° 0.1 mm 2 mps 652 mmHg 43%
    12:00 +25°C° 0.3 mm 2 mps 653 mmHg 42%
    13:00 +25°C° 0.3 mm 2 mps 653 mmHg 40%
    14:00 +26°C° 0.3 mm 2 mps 653 mmHg 39%
    15:00 +25°C° 0.2 mm 2 mps 653 mmHg 39%
    16:00 +25°C° 0.2 mm 2 mps 653 mmHg 40%
    17:00 +25°C° 0.2 mm 2 mps 652 mmHg 41%
    18:00 +24°C° 0.1 mm 1 mps 652 mmHg 47%
    19:00 +23°C° 0.1 mm 1 mps 652 mmHg 52%
    20:00 +21°C° 0.1 mm 1 mps 652 mmHg 58%
    21:00 +21°C° 0.2 mm 1 mps 652 mmHg 61%
    22:00 +20°C° 0.2 mm 1 mps 652 mmHg 64%
    23:00 +19°C° 0.2 mm 1 mps 652 mmHg 68%

    Tomorrow, 21 June, Thursday

    Time Temperature Precipitation Wind Pressure Humidity
    00:00 +19°C° 0.1 mm 1 mps 652 mmHg 68%
    01:00 +18°C° 0.1 mm 1 mps 652 mmHg 69%
    02:00 +18°C° 0.1 mm 1 mps 652 mmHg 69%
    03:00 +18°C° 0 mm 1 mps 651 mmHg 69%
    04:00 +16°C° 0 mm 0 mps 651 mmHg 68%
    05:00 +16°C° 0 mm 0 mps 651 mmHg 68%
    06:00 +19°C° 0 mm 1 mps 652 mmHg 61%
    07:00 +21°C° 0 mm 1 mps 652 mmHg 53%
    08:00 +23°C° 0 mm 1 mps 653 mmHg 45%
    09:00 +24°C° 0.2 mm 1 mps 653 mmHg 43%
    10:00 +25°C° 0.2 mm 2 mps 653 mmHg 41%
    11:00 +26°C° 0.2 mm 2 mps 653 mmHg 39%
    12:00 +26°C° 0.5 mm 2 mps 653 mmHg 39%
    13:00 +26°C° 0.5 mm 2 mps 652 mmHg 38%
    14:00 +26°C° 0.5 mm 2 mps 652 mmHg 38%
    15:00 +26°C° 0.4 mm 2 mps 652 mmHg 41%
    16:00 +25°C° 0.4 mm 2 mps 651 mmHg 43%
    17:00 +25°C° 0.4 mm 2 mps 651 mmHg 45%
    18:00 +24°C° 0.6 mm 2 mps 651 mmHg 51%
    19:00 +23°C° 0.6 mm 1 mps 651 mmHg 56%
    20:00 +21°C° 0.6 mm 1 mps 651 mmHg 61%
    21:00 +21°C° 0.3 mm 1 mps 651 mmHg 63%
    22:00 +20°C° 0.3 mm 1 mps 651 mmHg 65%
    23:00 +20°C° 0.3 mm 1 mps 651 mmHg 67%

    Day after tomorrow, 22 June, Friday

    Time Temperature Precipitation Wind Pressure Humidity
    00:00 +19°C° 0.4 mm 1 mps 650 mmHg 67%
    01:00 +19°C° 0.4 mm 1 mps 650 mmHg 67%
    02:00 +18°C° 0.4 mm 1 mps 650 mmHg 67%
    03:00 +18°C° 0.1 mm 1 mps 650 mmHg 67%
    04:00 +18°C° 0.1 mm 1 mps 650 mmHg 67%
    05:00 +18°C° 0.1 mm 1 mps 650 mmHg 66%
    06:00 +19°C° 0 mm 1 mps 650 mmHg 62%
    07:00 +21°C° 0 mm 1 mps 650 mmHg 57%
    08:00 +21°C° 0 mm 2 mps 651 mmHg 53%
    09:00 +23°C° 0 mm 2 mps 651 mmHg 49%
    10:00 +24°C° 0 mm 2 mps 651 mmHg 46%
    11:00 +25°C° 0 mm 2 mps 651 mmHg 42%
    12:00 +26°C° 0.2 mm 2 mps 651 mmHg 40%
    13:00 +26°C° 0.2 mm 2 mps 651 mmHg 39%
    14:00 +27°C° 0.2 mm 2 mps 650 mmHg 37%
    15:00 +26°C° 0.4 mm 2 mps 650 mmHg 38%
    16:00 +26°C° 0.4 mm 3 mps 650 mmHg 40%
    17:00 +26°C° 0.4 mm 3 mps 650 mmHg 41%
    18:00 +25°C° 0.4 mm 2 mps 650 mmHg 45%
    19:00 +23°C° 0.4 mm 2 mps 650 mmHg 50%
    20:00 +22°C° 0.4 mm 1 mps 650 mmHg 54%
    21:00 +22°C° 0.1 mm 1 mps 650 mmHg 57%
    22:00 +21°C° 0.1 mm 1 mps 650 mmHg 59%
    23:00 +20°C° 0.1 mm 1 mps 649 mmHg 62%

    23 June, Saturday

    Time Temperature Precipitation Wind Pressure Humidity
    00:00 +20°C° 0 mm 1 mps 649 mmHg 63%
    01:00 +19°C° 0 mm 1 mps 649 mmHg 64%
    02:00 +19°C° 0 mm 1 mps 649 mmHg 64%
    03:00 +18°C° 0 mm 1 mps 649 mmHg 65%
    04:00 +18°C° 0 mm 1 mps 649 mmHg 65%
    05:00 +18°C° 0 mm 1 mps 649 mmHg 65%
    06:00 +20°C° 0 mm 1 mps 650 mmHg 60%
    07:00 +21°C° 0 mm 1 mps 650 mmHg 55%
    08:00 +23°C° 0 mm 1 mps 651 mmHg 50%
    09:00 +24°C° 0.1 mm 2 mps 651 mmHg 48%
    10:00 +24°C° 0.1 mm 2 mps 651 mmHg 46%
    11:00 +25°C° 0.1 mm 2 mps 651 mmHg 43%
    12:00 +26°C° 0.2 mm 2 mps 651 mmHg 43%
    13:00 +26°C° 0.2 mm 2 mps 651 mmHg 42%
    14:00 +26°C° 0.2 mm 2 mps 651 mmHg 41%
    15:00 +26°C° 0.3 mm 2 mps 651 mmHg 42%
    16:00 +26°C° 0.3 mm 2 mps 651 mmHg 42%
    17:00 +26°C° 0.3 mm 2 mps 651 mmHg 42%
    18:00 +25°C° 0.3 mm 2 mps 651 mmHg 47%
    19:00 +23°C° 0.3 mm 1 mps 650 mmHg 51%
    20:00 +22°C° 0.3 mm 1 mps 650 mmHg 55%
    21:00 +22°C° 0.1 mm 1 mps 650 mmHg 57%
    22:00 +21°C° 0.1 mm 1 mps 650 mmHg 59%
    23:00 +20°C° 0.1 mm 1 mps 650 mmHg 61%

    24 June, Sunday

    Time Temperature Precipitation Wind Pressure Humidity
    00:00 +20°C° 0.1 mm 1 mps 650 mmHg 63%
    01:00 +19°C° 0.1 mm 1 mps 650 mmHg 64%
    02:00 +19°C° 0.1 mm 1 mps 650 mmHg 66%
    03:00 +17°C° 0 mm 2 mps 650 mmHg 69%
    04:00 +17°C° 0 mm 2 mps 650 mmHg 71%
    05:00 +17°C° 0 mm 2 mps 650 mmHg 74%
    06:00 +18°C° 0 mm 2 mps 650 mmHg 67%
    07:00 +20°C° 0 mm 2 mps 651 mmHg 61%
    08:00 +23°C° 0 mm 2 mps 651 mmHg 54%
    09:00 +24°C° 0 mm 2 mps 651 mmHg 49%
    10:00 +25°C° 0 mm 2 mps 652 mmHg 45%
    11:00 +26°C° 0 mm 2 mps 652 mmHg 40%
    12:00 +27°C° 0.1 mm 2 mps 652 mmHg 39%
    13:00 +27°C° 0.1 mm 2 mps 652 mmHg 37%
    14:00 +28°C° 0.1 mm 2 mps 651 mmHg 36%
    15:00 +27°C° 0.2 mm 2 mps 651 mmHg 37%
    16:00 +27°C° 0.2 mm 3 mps 651 mmHg 38%
    17:00 +27°C° 0.2 mm 3 mps 651 mmHg 39%
    18:00 +25°C° 0.2 mm 3 mps 651 mmHg 46%
    19:00 +24°C° 0.2 mm 3 mps 651 mmHg 53%
    20:00 +21°C° 0.2 mm 3 mps 651 mmHg 60%
    21:00 +20°C° 0.1 mm 2 mps 651 mmHg 65%
    22:00 +20°C° 0.1 mm 2 mps 651 mmHg 69%
    23:00 +19°C° 0.1 mm 2 mps 651 mmHg 73%

    25 June, Monday

    Time Temperature Precipitation Wind Pressure Humidity
    00:00 +18°C° 0 mm 2 mps 651 mmHg 75%
    01:00 +18°C° 0 mm 2 mps 650 mmHg 77%
    02:00 +17°C° 0 mm 2 mps 650 mmHg 79%
    03:00 +17°C° 0 mm 2 mps 650 mmHg 81%
    04:00 +17°C° 0 mm 2 mps 650 mmHg 82%
    05:00 +18°C° 0 mm 1 mps 650 mmHg 83%
    06:00 +19°C° 0 mm 1 mps 651 mmHg 75%
    07:00 +21°C° 0 mm 1 mps 651 mmHg 68%
    08:00 +22°C° 0 mm 1 mps 652 mmHg 60%
    09:00 +24°C° 0 mm 1 mps 652 mmHg 54%
    10:00 +25°C° 0 mm 1 mps 652 mmHg 49%
    11:00 +26°C° 0 mm 2 mps 652 mmHg 43%
    12:00 +27°C° 0 mm 2 mps 652 mmHg 41%
    13:00 +28°C° 0 mm 2 mps 652 mmHg 38%
    14:00 +29°C° 0 mm 1 mps 652 mmHg 36%
    15:00 +28°C° 0.1 mm 1 mps 651 mmHg 36%
    16:00 +28°C° 0.1 mm 1 mps 651 mmHg 37%
    17:00 +28°C° 0.1 mm 1 mps 651 mmHg 37%
    18:00 +27°C° 0.1 mm 1 mps 651 mmHg 43%
    19:00 +25°C° 0.1 mm 1 mps 651 mmHg 48%
    20:00 +24°C° 0.1 mm 1 mps 651 mmHg 54%
    21:00 +23°C° 0 mm 1 mps 650 mmHg 58%
    22:00 +22°C° 0 mm 1 mps 650 mmHg 62%
    23:00 +21°C° 0 mm 1 mps 650 mmHg 66%
    Show more